Location: Unspecified
(44.4377°N, 88.0525°W)
Time: 18:46:14
(UTC-05:00)

Cosmos 1674 - Visible Passes

Search period start: 29 March 2015 00:00
Search period end: 08 April 2015 00:00
Orbit: 507 x 535 km, 82.5° (Epoch: 29 March)

Date Brightness Start Highest point End Pass type
(mag) Time Alt. Az. Time Alt. Az. Time Alt. Az.
29 Mar 3.0 20:06:25 10° N 20:10:06 45° ENE 20:13:49 10° SSE visible
29 Mar 5.7 21:43:44 10° WNW 21:45:36 13° W 21:47:17 10° WSW visible
30 Mar 3.2 19:53:09 10° N 19:56:46 39° ENE 20:00:23 10° SSE visible
30 Mar 5.7 21:30:02 10° NW 21:32:19 15° W 21:34:28 10° WSW visible
31 Mar 5.6 21:16:25 10° NW 21:19:01 17° W 21:21:31 10° SW visible
01 Apr 5.4 21:02:51 10° NW 21:05:43 20° W 21:08:29 10° SW visible
02 Apr 5.2 20:49:18 10° NW 20:52:23 23° W 20:55:24 10° SW visible
03 Apr 5.0 20:35:47 10° NNW 20:39:03 26° W 20:42:15 10° SSW visible
04 Apr 4.8 20:22:17 10° NNW 20:25:41 30° W 20:29:04 10° SSW visible
05 Apr 4.6 20:08:47 10° NNW 20:12:19 35° W 20:15:50 10° SSW visible
06 Apr 4.3 19:55:17 10° NNW 19:58:56 40° W 20:02:34 10° SSW visible
